This demonstration page uses our WeatherBlox Daily Observations layout. Learn more.

Left ArrowRight Arrow

41.86663, -103.66717

Hourly Observations for October 21, 2021

Temp ( °F °C ) Dew Point ( °F °C ) Humidity (%) Winds ( mph kmh ) Pressure ( in mb ) Visibility ( mi km ) Precip ( " mm )
12:53 am 00:53 Clear 36 2.2 32 undefined 86 86 NE 5 7 30.20 1023 10 16 N/A
1:53 am 01:53 Clear 34 1.1 31 -0.6 89 89 E 3 6 30.19 1023 10 16 N/A
2:53 am 02:53 Clear 34 1.1 31 -0.6 89 89 N N/A 30.19 1022 10 16 N/A
3:53 am 03:53 Clear 35 1.7 32 undefined 89 89 NE 3 6 30.18 1022 10 16 N/A
4:53 am 04:53 Clear 33 0.6 30 -1.1 89 89 ENE 3 6 30.18 1022 10 16 N/A
5:53 am 05:53 Clear 33 0.6 30 -1.1 89 89 N 3 6 30.21 1023 10 16 N/A
6:53 am 06:53 Clear 31 -0.6 28 -2.2 89 89 NNW 5 7 30.23 1024 10 16 N/A
7:53 am 07:53 Sunny 32 undefined 30 -1.1 92 92 W 3 6 30.25 1025 8 13 N/A
8:53 am 08:53 Sunny 39 3.9 34 1.1 82 82 N N/A 30.26 1025 10 16 N/A
9:53 am 09:53 Sunny 46 7.8 38 3.3 73 73 NW 5 7 30.25 1024 10 16 N/A
10:53 am 10:53 Sunny 54 12.2 40 4.4 59 59 VRB 5 7 30.24 1024 10 16 N/A
11:53 am 11:53 Sunny 61 16.1 39 3.9 44 44 WNW 9 15 30.21 1023 10 16 N/A
12:53 pm 12:53 Sunny 61 16.1 38 3.3 43 43 WNW 10 17 30.18 1022 10 16 N/A
1:53 pm 13:53 Sunny 65 18.3 37 2.8 36 36 NW 10 17 30.16 1021 10 16 N/A
2:53 pm 14:53 Sunny 66 18.9 36 2.2 33 33 WNW 7 11 30.15 1021 10 16 N/A
3:53 pm 15:53 Sunny 67 19.4 35 1.7 31 31 WNW 12 19 30.13 1020 10 16 N/A
4:53 pm 16:53 Sunny 66 18.9 34 1.1 30 30 W 9 15 30.13 1020 10 16 N/A
5:53 pm 17:53 Sunny 62 16.7 36 2.2 38 38 N N/A 30.14 1021 10 16 N/A
6:53 pm 18:53 Clear 51 10.6 36 2.2 56 56 N N/A 30.17 1022 10 16 N/A
7:53 pm 19:53 Clear 54 12.2 35 1.7 49 49 SSE 3 6 30.16 1021 10 16 N/A
8:53 pm 20:53 Clear 46 7.8 36 2.2 68 68 N N/A 30.15 1021 10 16 N/A
9:53 pm 21:53 Clear 43 6.1 34 1.1 71 71 SE 8 13 30.15 1021 10 16 N/A
10:53 pm 22:53 Clear 40 4.4 34 1.1 79 79 ESE 5 7 30.12 1020 10 16 N/A
11:53 pm 23:53 Clear 38 3.3 34 1.1 86 86 undefined N/A 30.09 1019 10 16 N/A

Powered by AerisWeather